sat.trackr.live / text

‹ back to catalog

DTC TEST OBJECT A

NORAD 69472 · 2026-128A

PAYLOAD ACTIVE UNKNOWN

§ Identity

Operator
Country
PRC
Launch date
2026-06-09
Launch site
JSC
Launch vehicle
Mass (kg)
RCS (m²)

External: N2YO · Heavens-Above · Gunter

§ Orbital elements

Epoch: 2026-09-19T11:18:16.640352Z

Period
92.80 min
Inclination
54.9907°
Eccentricity
0.0014159
Mean motion
15.51694814 rev/d
Perigee alt
402.2 km
Apogee alt
421.4 km
Semi-major
6,789.9 km
B*
2.4094e-4
RAAN
229.3613°
Arg perigee
146.4788°
Mean anomaly
213.7145°
Rev number
1,590

§ Raw data

DTC TEST OBJECT A1 69472U 26128A   26262.47102593  .00014184  00000+0  24094-3 0  99952 69472  54.9907 229.3613 0014159 146.4788 213.7145 15.51694814 15900

JSON: /api/v1/satellites/69472 · /tle

For live sub-satellite position, see the globe view (requires WebGL).

§ Visibility from observer

Set your observer location to see the next 7 days of passes ≥ 10°. The values pass through the URL so the page stays shareable.

No JS? Fill the form by hand. The geolocation button needs JavaScript.